Portal de Información Aeronáutica de la República Argentina

Bienvenidos


BAiresFlight

Bienvenidos a BAiresFlight, en este sitio encontrarán toda la información relativa al vuelo. Páginas de interés, archivos enviados por usuarios, documentos, normativas, etc. Desde BAiresFlight apuntamos a que este sitio sea un lugar de consulta, de incorporación de conocimientos, vínculos a sitios de interés relacionados con el vuelo, y por sobre todo, privilegiar el rápido y ágil acceso a la información, todo esto, sin dejar de ser un lugar de encuentro para pilotos, escuelas de vuelo, alumnos, aeroclubes, tripulantes de cabina, instructores, etc. donde buscar e intercambiar experiencias y conocimiento. Paulatinamente, iremos incorporando nuevos documentos, como así también renovando y agregando contenido, y por tal motivo, lo invitamos a regresar. Desde ya, muchas gracias por visitarnos, y compartir este sitio con sus colegas y amigos. Los invitamos a conocer BAiresFlight Portal de información aeronáutica de la República Argentina.

Importante:

Este portal, eventualmente puede emitir comunicados a través de ventanas emergentes, por tal motivo se recomienda permitir las mismas, para esto, deberá ir a la parte de configuración de su explorador y buscar la opción “Permitir ventanas emergentes

BAiresFlight

 

Vuelos de Bautismo en General Rodríguez

12299162_448838941973264_695990146714630102_n

BAiresFlight en Facebook


Aviación Civil Argentina

BAiresFlight

Available data for SABE from the past 2 hours

METAR
SABE 262300Z 12008KT CAVOK 19/16 Q1008
SABE 262200Z 11008KT CAVOK 18/16 Q1007
TAF
TAF COR SABE 261700Z 2618/2718 07005KT CAVOK TX23/2619Z TN12/2718Z BECMG 2620/2622 11010KT BECMG 2701/2704 16015KT 4000 TSRA BKN015 FEW035CB OVC040 PROB30 TEMPO 2703/2706 16020G30KT 2000 TSRA SCT035CB BECMG 2708/2710 16015G20KT 4000 RA BKN015 OVC040